Year,Month,Day,Hour,Minute,Value (Times are PST for temperature in C)
2019,02,17,00,00,-14.90
2019,02,17,00,01,-14.90
2019,02,17,00,02,-14.90
2019,02,17,00,03,-14.90
2019,02,17,00,04,-14.90
2019,02,17,00,05,-14.90
2019,02,17,00,06,-14.90
2019,02,17,00,07,-14.90
2019,02,17,00,08,-14.80
2019,02,17,00,09,-14.80
2019,02,17,00,10,-14.80
2019,02,17,00,11,-14.70
2019,02,17,00,12,-14.70
2019,02,17,00,13,-14.70
2019,02,17,00,14,-14.70
2019,02,17,00,15,-14.60
2019,02,17,00,16,-14.50
2019,02,17,00,17,-14.50
2019,02,17,00,18,-14.40
2019,02,17,00,19,-14.40
2019,02,17,00,20,-14.30
2019,02,17,00,21,-14.30
2019,02,17,00,22,-14.20
2019,02,17,00,23,-14.20
2019,02,17,00,24,-14.20
2019,02,17,00,25,-14.20
2019,02,17,00,26,-14.20
2019,02,17,00,27,-14.20
2019,02,17,00,28,-14.20
2019,02,17,00,29,-14.20
2019,02,17,00,30,-14.20
2019,02,17,00,31,-14.20
2019,02,17,00,32,-14.20
2019,02,17,00,33,-14.20
2019,02,17,00,34,-14.20
2019,02,17,00,35,-14.20
2019,02,17,00,36,-14.20
2019,02,17,00,37,-14.20
2019,02,17,00,38,-14.20
2019,02,17,00,39,-14.20
2019,02,17,00,40,-14.20
2019,02,17,00,41,-14.20
2019,02,17,00,42,-14.10
2019,02,17,00,43,-14.20
2019,02,17,00,44,-14.10
2019,02,17,00,45,-14.10
2019,02,17,00,46,-14.10
2019,02,17,00,47,-14.10
2019,02,17,00,48,-14.10
2019,02,17,00,49,-14.10
2019,02,17,00,50,-14.10
2019,02,17,00,51,-14.10
2019,02,17,00,52,-14.10
2019,02,17,00,53,-14.10
2019,02,17,00,54,-14.10
2019,02,17,00,55,-14.10
2019,02,17,00,56,-14.10
2019,02,17,00,57,-14.10
2019,02,17,00,58,-14.10
2019,02,17,00,59,-14.10
2019,02,17,01,00,-14.20
2019,02,17,01,01,-14.20
2019,02,17,01,02,-14.20
2019,02,17,01,03,-14.20
2019,02,17,01,04,-14.20
2019,02,17,01,05,-14.30
2019,02,17,01,06,-14.30
2019,02,17,01,07,-14.30
2019,02,17,01,08,-14.40
2019,02,17,01,09,-14.40
2019,02,17,01,10,-14.40
2019,02,17,01,11,-14.50
2019,02,17,01,12,-14.50
2019,02,17,01,13,-14.50
2019,02,17,01,14,-14.50
2019,02,17,01,15,-14.50
2019,02,17,01,16,-14.60
2019,02,17,01,17,-14.60
2019,02,17,01,18,-14.60
2019,02,17,01,19,-14.60
2019,02,17,01,20,-14.70
2019,02,17,01,21,-14.70
2019,02,17,01,22,-14.70
2019,02,17,01,23,-14.70
2019,02,17,01,24,-14.80
2019,02,17,01,25,-14.80
2019,02,17,01,26,-14.80
2019,02,17,01,27,-14.80
2019,02,17,01,28,-14.90
2019,02,17,01,29,-14.90
2019,02,17,01,30,-14.90
2019,02,17,01,31,-15.00
2019,02,17,01,32,-15.00
2019,02,17,01,33,-15.10
2019,02,17,01,34,-15.10
2019,02,17,01,35,-15.20
2019,02,17,01,36,-15.20
2019,02,17,01,37,-15.20
2019,02,17,01,38,-15.30
2019,02,17,01,39,-15.30
2019,02,17,01,40,-15.40
2019,02,17,01,41,-15.40
2019,02,17,01,42,-15.40
2019,02,17,01,43,-15.50
2019,02,17,01,44,-15.60
2019,02,17,01,45,-15.60
2019,02,17,01,46,-15.60
2019,02,17,01,47,-15.70
2019,02,17,01,48,-15.70
2019,02,17,01,49,-15.80
2019,02,17,01,50,-15.80
2019,02,17,01,51,-15.90
2019,02,17,01,52,-16.00
2019,02,17,01,53,-16.10
2019,02,17,01,54,-16.10
2019,02,17,01,55,-16.10
2019,02,17,01,56,-16.20
2019,02,17,01,57,-16.20
2019,02,17,01,58,-16.30
2019,02,17,01,59,-16.30
2019,02,17,02,00,-16.40
2019,02,17,02,01,-16.40
2019,02,17,02,02,-16.50
2019,02,17,02,03,-16.50
2019,02,17,02,04,-16.50
2019,02,17,02,05,-16.60
2019,02,17,02,06,-16.60
2019,02,17,02,07,-16.70
2019,02,17,02,08,-16.70
2019,02,17,02,09,-16.80
2019,02,17,02,10,-16.80
2019,02,17,02,11,-16.80
2019,02,17,02,12,-16.90
2019,02,17,02,13,-16.90
2019,02,17,02,14,-17.00
2019,02,17,02,15,-17.00
2019,02,17,02,16,-17.10
2019,02,17,02,17,-17.30
2019,02,17,02,18,-17.40
2019,02,17,02,19,-17.40
2019,02,17,02,20,-17.40
2019,02,17,02,21,-17.40
2019,02,17,02,22,-17.40
2019,02,17,02,23,-17.50
2019,02,17,02,24,-17.50
2019,02,17,02,25,-17.50
2019,02,17,02,26,-17.50
2019,02,17,02,27,-17.50
2019,02,17,02,28,-17.60
2019,02,17,02,29,-17.60
2019,02,17,02,30,-17.60
2019,02,17,02,31,-17.60
2019,02,17,02,32,-17.60
2019,02,17,02,33,-17.60
2019,02,17,02,34,-17.60
2019,02,17,02,35,-17.60
2019,02,17,02,36,-17.60
2019,02,17,02,37,-17.60
2019,02,17,02,38,-17.60
2019,02,17,02,39,-17.60
2019,02,17,02,40,-17.60
2019,02,17,02,41,-17.60
2019,02,17,02,42,-17.60
2019,02,17,02,58,-17.70
2019,02,17,02,59,-17.80
2019,02,17,03,00,-17.80
2019,02,17,03,01,-17.80
2019,02,17,03,02,-17.80
2019,02,17,03,03,-17.80
2019,02,17,03,04,-17.80
2019,02,17,03,05,-17.80
2019,02,17,03,06,-17.80
2019,02,17,03,07,-17.80
2019,02,17,03,08,-17.90
2019,02,17,03,09,-17.90
2019,02,17,03,10,-17.90
2019,02,17,03,11,-17.90
2019,02,17,03,12,-17.90
2019,02,17,03,13,-17.90
2019,02,17,03,14,-17.90
2019,02,17,03,15,-18.00
2019,02,17,03,16,-18.00
2019,02,17,03,17,-18.10
2019,02,17,03,18,-18.20
2019,02,17,03,19,-18.40
2019,02,17,03,20,-18.60
2019,02,17,03,21,-18.80
2019,02,17,03,22,-19.00
2019,02,17,03,23,-19.10
2019,02,17,03,24,-19.20
2019,02,17,03,25,-19.30
2019,02,17,03,26,-19.40
2019,02,17,03,27,-19.40
2019,02,17,03,28,-19.50
2019,02,17,03,29,-19.50
2019,02,17,03,30,-19.50
2019,02,17,03,31,-19.60
2019,02,17,03,32,-19.60
2019,02,17,03,33,-19.70
2019,02,17,03,34,-19.70
2019,02,17,03,35,-19.70
2019,02,17,03,36,-19.70
2019,02,17,03,37,-19.70
2019,02,17,03,38,-19.70
2019,02,17,03,39,-19.80
2019,02,17,03,40,-19.80
2019,02,17,03,41,-19.80
2019,02,17,03,42,-19.80
2019,02,17,03,43,-19.80
2019,02,17,03,44,-19.80
2019,02,17,03,45,-19.80
2019,02,17,03,46,-19.80
2019,02,17,03,47,-19.80
2019,02,17,03,48,-19.80
2019,02,17,03,49,-19.80
2019,02,17,03,50,-19.80
2019,02,17,03,51,-19.80
2019,02,17,03,52,-19.80
2019,02,17,03,53,-19.80
2019,02,17,03,54,-19.80
2019,02,17,03,55,-19.80
2019,02,17,03,56,-19.80
2019,02,17,03,57,-19.80
2019,02,17,03,58,-19.80
2019,02,17,03,59,-19.80
2019,02,17,04,00,-19.80
2019,02,17,04,01,-19.80
2019,02,17,04,02,-19.80
2019,02,17,04,03,-19.70
2019,02,17,04,04,-19.60
2019,02,17,04,05,-19.60
2019,02,17,04,06,-19.50
2019,02,17,04,07,-19.50
2019,02,17,04,08,-19.40
2019,02,17,04,09,-19.40
2019,02,17,04,10,-19.40
2019,02,17,04,11,-19.30
2019,02,17,04,12,-19.30
2019,02,17,04,13,-19.30
2019,02,17,04,14,-19.20
2019,02,17,04,15,-19.20
2019,02,17,04,16,-19.20
2019,02,17,04,17,-19.10
2019,02,17,04,18,-19.10
2019,02,17,04,19,-19.00
2019,02,17,04,20,-19.00
2019,02,17,04,21,-19.00
2019,02,17,04,22,-19.00
2019,02,17,04,23,-19.00
2019,02,17,04,24,-19.00
2019,02,17,04,25,-19.00
2019,02,17,04,26,-19.00
2019,02,17,04,27,-19.00
2019,02,17,04,28,-19.00
2019,02,17,04,29,-19.00
2019,02,17,04,30,-19.10
2019,02,17,04,31,-19.10
2019,02,17,04,32,-19.20
2019,02,17,04,33,-19.20
2019,02,17,04,34,-19.20
2019,02,17,04,35,-19.30
2019,02,17,04,36,-19.30
2019,02,17,04,37,-19.30
2019,02,17,04,38,-19.30
2019,02,17,04,39,-19.40
2019,02,17,04,40,-19.40
2019,02,17,04,41,-19.40
2019,02,17,04,42,-19.40
2019,02,17,04,43,-19.40
2019,02,17,04,44,-19.40
2019,02,17,04,45,-19.40
2019,02,17,04,46,-19.40
2019,02,17,04,47,-19.30
2019,02,17,04,48,-19.30
2019,02,17,04,49,-19.40
2019,02,17,04,50,-19.40
2019,02,17,04,51,-19.40
2019,02,17,04,52,-19.40
2019,02,17,04,53,-19.40
2019,02,17,04,54,-19.40
2019,02,17,04,55,-19.40
2019,02,17,04,56,-19.40
2019,02,17,04,57,-19.40
2019,02,17,04,58,-19.40
2019,02,17,04,59,-19.50
2019,02,17,05,00,-19.40
2019,02,17,05,01,-19.40
2019,02,17,05,02,-19.40
2019,02,17,05,03,-19.40
2019,02,17,05,04,-19.40
2019,02,17,05,05,-19.50
2019,02,17,05,06,-19.60
2019,02,17,05,07,-19.80
2019,02,17,05,08,-20.00
2019,02,17,05,09,-20.10
2019,02,17,05,10,-20.20
2019,02,17,05,11,-20.30
2019,02,17,05,12,-20.30
2019,02,17,05,13,-20.30
2019,02,17,05,14,-20.40
2019,02,17,05,15,-20.50
2019,02,17,05,16,-20.60
2019,02,17,05,17,-20.60
2019,02,17,05,18,-20.70
2019,02,17,05,19,-20.80
2019,02,17,05,20,-20.80
2019,02,17,05,21,-20.90
2019,02,17,05,22,-21.00
2019,02,17,05,23,-21.00
2019,02,17,05,24,-21.10
2019,02,17,05,25,-21.10
2019,02,17,05,26,-21.10
2019,02,17,05,27,-21.20
2019,02,17,05,28,-21.10
2019,02,17,05,29,-21.00
2019,02,17,05,30,-21.00
2019,02,17,05,31,-20.90
2019,02,17,05,32,-20.80
2019,02,17,05,33,-20.80
2019,02,17,05,34,-20.80
2019,02,17,05,35,-20.70
2019,02,17,05,36,-20.70
2019,02,17,05,37,-20.70
2019,02,17,05,38,-20.60
2019,02,17,05,39,-20.60
2019,02,17,05,40,-20.40
2019,02,17,05,41,-20.30
2019,02,17,05,42,-20.30
2019,02,17,05,43,-20.20
2019,02,17,05,44,-20.20
2019,02,17,05,45,-20.20
2019,02,17,05,46,-20.20
2019,02,17,05,47,-20.20
2019,02,17,05,48,-20.20
2019,02,17,05,49,-20.20
2019,02,17,05,50,-20.20
2019,02,17,05,51,-20.20
2019,02,17,05,52,-20.20
2019,02,17,05,53,-20.20
2019,02,17,05,54,-20.20
2019,02,17,05,55,-20.20
2019,02,17,05,56,-20.20
2019,02,17,05,57,-20.30
2019,02,17,05,58,-20.40
2019,02,17,05,59,-20.50
2019,02,17,06,00,-20.50
2019,02,17,06,01,-20.60
2019,02,17,06,02,-20.60
2019,02,17,06,03,-20.60
2019,02,17,06,04,-20.60
2019,02,17,06,05,-20.70
2019,02,17,06,06,-20.70
2019,02,17,06,07,-20.80
2019,02,17,06,08,-20.80
2019,02,17,06,09,-20.90
2019,02,17,06,10,-21.10
2019,02,17,06,11,-21.20
2019,02,17,06,12,-21.40
2019,02,17,06,13,-21.50
2019,02,17,06,14,-21.70
2019,02,17,06,15,-21.70
2019,02,17,06,16,-21.90
2019,02,17,06,17,-22.10
2019,02,17,06,18,-22.10
2019,02,17,06,19,-22.20
2019,02,17,06,20,-22.30
2019,02,17,06,21,-22.30
2019,02,17,06,22,-22.30
2019,02,17,06,23,-22.30
2019,02,17,06,24,-22.40
2019,02,17,06,25,-22.40
2019,02,17,06,26,-22.40
2019,02,17,06,27,-22.40
2019,02,17,06,28,-22.40
2019,02,17,06,29,-22.40
2019,02,17,06,30,-22.30
2019,02,17,06,31,-22.30
2019,02,17,06,32,-22.20
2019,02,17,06,33,-22.20
2019,02,17,06,34,-22.20
2019,02,17,06,35,-22.10
2019,02,17,06,36,-22.10
2019,02,17,06,37,-22.10
2019,02,17,06,38,-22.00
2019,02,17,06,39,-21.90
2019,02,17,06,40,-21.80
2019,02,17,06,41,-21.80
2019,02,17,06,42,-21.70
2019,02,17,06,43,-21.70
2019,02,17,06,44,-21.70
2019,02,17,06,45,-21.70
2019,02,17,06,46,-21.70
2019,02,17,06,47,-21.60
2019,02,17,06,48,-21.60
2019,02,17,06,49,-21.60
2019,02,17,06,50,-21.60
2019,02,17,06,51,-21.60
2019,02,17,06,52,-21.60
2019,02,17,06,53,-21.60
2019,02,17,06,54,-21.60
2019,02,17,06,55,-21.60
2019,02,17,06,56,-21.60
2019,02,17,06,57,-21.70
2019,02,17,06,58,-21.70
2019,02,17,06,59,-21.70
2019,02,17,07,00,-21.70
2019,02,17,07,01,-21.70
2019,02,17,07,02,-21.70
2019,02,17,07,03,-21.70
2019,02,17,07,04,-21.70
2019,02,17,07,05,-21.80
2019,02,17,07,06,-21.70
2019,02,17,07,07,-21.70
2019,02,17,07,08,-21.70
2019,02,17,07,09,-21.70
2019,02,17,07,10,-21.60
2019,02,17,07,11,-21.60
2019,02,17,07,12,-21.60
2019,02,17,07,13,-21.50
2019,02,17,07,14,-21.50
2019,02,17,07,15,-21.50
2019,02,17,07,16,-21.40
2019,02,17,07,17,-21.40
2019,02,17,07,18,-21.30
2019,02,17,07,19,-21.20
2019,02,17,07,20,-21.20
2019,02,17,07,21,-21.10
2019,02,17,07,22,-21.10
2019,02,17,07,23,-21.00
2019,02,17,07,24,-20.90
2019,02,17,07,25,-20.80
2019,02,17,07,26,-20.70
2019,02,17,07,27,-20.60
2019,02,17,07,28,-20.50
2019,02,17,07,29,-20.50
2019,02,17,07,30,-20.40
2019,02,17,07,31,-20.40
2019,02,17,07,32,-20.60
2019,02,17,07,33,-20.70
2019,02,17,07,34,-20.80
2019,02,17,07,35,-21.00
2019,02,17,07,36,-21.10
2019,02,17,07,37,-21.10
2019,02,17,07,38,-21.20
2019,02,17,07,39,-21.30
2019,02,17,07,40,-21.30
2019,02,17,07,41,-21.30
2019,02,17,07,42,-21.30
2019,02,17,07,43,-21.30
2019,02,17,07,44,-21.30
2019,02,17,07,45,-21.30
2019,02,17,07,46,-21.20
2019,02,17,07,47,-21.20
2019,02,17,07,48,-21.10
2019,02,17,07,49,-21.00
2019,02,17,07,50,-20.90
2019,02,17,07,51,-20.80
2019,02,17,07,52,-20.70
2019,02,17,07,53,-20.60
2019,02,17,07,54,-20.60
2019,02,17,07,55,-20.50
2019,02,17,07,56,-20.50
2019,02,17,07,57,-20.50
2019,02,17,07,58,-20.50
2019,02,17,07,59,-20.40
2019,02,17,08,00,-20.30
2019,02,17,08,01,-20.30
2019,02,17,08,02,-20.20
2019,02,17,08,03,-20.10
2019,02,17,08,04,-20.10
2019,02,17,08,05,-20.00
2019,02,17,08,06,-19.90
2019,02,17,08,07,-19.80
2019,02,17,08,08,-19.70
2019,02,17,08,09,-19.60
2019,02,17,08,10,-19.60
2019,02,17,08,11,-19.50
2019,02,17,08,12,-19.40
2019,02,17,08,13,-19.30
2019,02,17,08,14,-19.30
2019,02,17,08,15,-19.20
2019,02,17,08,16,-19.20
2019,02,17,08,17,-19.20
2019,02,17,08,18,-19.20
2019,02,17,08,19,-19.10
2019,02,17,08,20,-19.10
2019,02,17,08,21,-19.00
2019,02,17,08,22,-19.00
2019,02,17,08,23,-18.90
2019,02,17,08,24,-18.90
2019,02,17,08,25,-18.90
2019,02,17,08,26,-18.80
2019,02,17,08,27,-18.80
2019,02,17,08,28,-18.80
2019,02,17,08,29,-18.70
2019,02,17,08,30,-18.70
2019,02,17,08,31,-18.60
2019,02,17,08,32,-18.60
2019,02,17,08,33,-18.50
2019,02,17,08,34,-18.50
2019,02,17,08,35,-18.40
2019,02,17,08,36,-18.40
2019,02,17,08,37,-18.30
2019,02,17,08,38,-18.30
2019,02,17,08,39,-18.20
2019,02,17,08,40,-18.20
2019,02,17,08,41,-18.10
2019,02,17,08,42,-18.00
2019,02,17,08,43,-18.00
2019,02,17,08,44,-17.90
2019,02,17,08,45,-17.90
2019,02,17,08,46,-17.80
2019,02,17,08,47,-17.70
2019,02,17,08,48,-17.60
2019,02,17,08,49,-17.60
2019,02,17,08,50,-17.60
2019,02,17,08,51,-17.50
2019,02,17,08,52,-17.50
2019,02,17,08,53,-17.50
2019,02,17,08,54,-17.50
2019,02,17,08,55,-17.60
2019,02,17,08,56,-17.60
2019,02,17,08,57,-17.60
2019,02,17,08,58,-17.60
2019,02,17,08,59,-17.80
2019,02,17,09,00,-17.80
2019,02,17,09,01,-17.80
2019,02,17,09,02,-17.90
2019,02,17,09,03,-17.90
2019,02,17,09,04,-17.90
2019,02,17,09,05,-18.00
2019,02,17,09,06,-18.00
2019,02,17,09,07,-18.00
2019,02,17,09,08,-18.00
2019,02,17,09,09,-18.10
2019,02,17,09,10,-18.10
2019,02,17,09,11,-18.10
2019,02,17,09,12,-18.10
2019,02,17,09,13,-18.00
2019,02,17,09,14,-18.00
2019,02,17,09,15,-18.00
2019,02,17,09,16,-18.00
2019,02,17,09,17,-18.00
2019,02,17,09,18,-17.90
2019,02,17,09,19,-17.90
2019,02,17,09,20,-17.90
2019,02,17,09,21,-17.90
2019,02,17,09,22,-17.80
2019,02,17,09,23,-17.80
2019,02,17,09,24,-17.80
2019,02,17,09,25,-17.80
2019,02,17,09,26,-17.80
2019,02,17,09,27,-17.70
2019,02,17,09,28,-17.70
2019,02,17,09,29,-17.70
2019,02,17,09,30,-17.70
2019,02,17,09,31,-17.80
2019,02,17,09,32,-17.80
2019,02,17,09,33,-17.80
2019,02,17,09,34,-17.80
2019,02,17,09,35,-17.80
2019,02,17,09,36,-17.80
2019,02,17,09,37,-17.80
2019,02,17,09,38,-17.80
2019,02,17,09,39,-17.80
2019,02,17,09,40,-17.90
2019,02,17,09,41,-18.00
2019,02,17,09,42,-18.20
2019,02,17,09,43,-18.30
2019,02,17,09,44,-18.40
2019,02,17,09,45,-18.40
2019,02,17,09,46,-18.50
2019,02,17,09,47,-18.50
2019,02,17,09,48,-18.60
2019,02,17,09,49,-18.60
2019,02,17,09,50,-18.70
2019,02,17,09,51,-18.80
2019,02,17,09,52,-18.80
2019,02,17,09,53,-18.90
2019,02,17,09,54,-18.90
2019,02,17,09,55,-18.90
2019,02,17,09,56,-18.80
2019,02,17,09,57,-18.80
2019,02,17,09,58,-18.70
2019,02,17,09,59,-18.70
2019,02,17,10,00,-18.60
2019,02,17,10,01,-18.50
2019,02,17,10,02,-18.40
2019,02,17,10,03,-18.30
2019,02,17,10,04,-18.30
2019,02,17,10,05,-18.10
2019,02,17,10,06,-18.10
2019,02,17,10,07,-18.10
2019,02,17,10,08,-18.10
2019,02,17,10,09,-18.20
2019,02,17,10,10,-18.30
2019,02,17,10,11,-18.30
2019,02,17,10,12,-18.40
2019,02,17,10,13,-18.40
2019,02,17,10,14,-18.50
2019,02,17,10,15,-18.50
2019,02,17,10,16,-18.50
2019,02,17,10,17,-18.50
2019,02,17,10,18,-18.60
2019,02,17,10,19,-18.50
2019,02,17,10,20,-18.50
2019,02,17,10,21,-18.40
2019,02,17,10,22,-18.20
2019,02,17,10,23,-18.00
2019,02,17,10,24,-17.80
2019,02,17,10,25,-17.70
2019,02,17,10,26,-17.60
2019,02,17,10,27,-17.50
2019,02,17,10,28,-17.30
2019,02,17,10,29,-17.10
2019,02,17,10,30,-17.00
2019,02,17,10,31,-16.80
2019,02,17,10,32,-16.70
2019,02,17,10,33,-16.60
2019,02,17,10,34,-16.50
2019,02,17,10,35,-16.40
2019,02,17,10,36,-16.20
2019,02,17,10,37,-16.10
2019,02,17,10,38,-16.00
2019,02,17,10,39,-15.90
2019,02,17,10,40,-15.80
2019,02,17,10,41,-15.80
2019,02,17,10,42,-15.80
2019,02,17,10,43,-15.80
2019,02,17,10,44,-15.80
2019,02,17,10,45,-15.60
2019,02,17,10,46,-15.40
2019,02,17,10,47,-15.40
2019,02,17,10,48,-15.30
2019,02,17,10,49,-15.20
2019,02,17,10,50,-15.20
2019,02,17,10,51,-15.10
2019,02,17,10,52,-15.00
2019,02,17,10,53,-14.90
2019,02,17,10,54,-14.80
2019,02,17,10,55,-14.80
2019,02,17,10,56,-14.70
2019,02,17,10,57,-14.70
2019,02,17,10,58,-14.70
2019,02,17,10,59,-14.70
2019,02,17,11,00,-14.60
2019,02,17,11,01,-14.50
2019,02,17,11,02,-14.50
2019,02,17,11,03,-14.40
2019,02,17,11,04,-14.40
2019,02,17,11,05,-14.30
2019,02,17,11,06,-14.30
2019,02,17,11,07,-14.30
2019,02,17,11,08,-14.30
2019,02,17,11,09,-14.40
2019,02,17,11,10,-14.40
2019,02,17,11,11,-14.40
2019,02,17,11,12,-14.40
2019,02,17,11,13,-14.30
2019,02,17,11,14,-14.30
2019,02,17,11,15,-14.30
2019,02,17,11,16,-14.30
2019,02,17,11,17,-14.30
2019,02,17,11,18,-14.40
2019,02,17,11,19,-14.40
2019,02,17,11,20,-14.40
2019,02,17,11,21,-14.50
2019,02,17,11,22,-14.50
2019,02,17,11,23,-14.50
2019,02,17,11,24,-14.60
2019,02,17,11,25,-14.60
2019,02,17,11,26,-14.60
2019,02,17,11,27,-14.60
2019,02,17,11,28,-14.70
2019,02,17,11,29,-14.70
2019,02,17,11,30,-14.60
2019,02,17,11,31,-14.60
2019,02,17,11,32,-14.50
2019,02,17,11,33,-14.50
2019,02,17,11,34,-14.50
2019,02,17,11,35,-14.60
2019,02,17,11,36,-14.60
2019,02,17,11,37,-14.70
2019,02,17,11,38,-14.70
2019,02,17,11,39,-14.70
2019,02,17,11,40,-14.70
2019,02,17,11,41,-14.60
2019,02,17,11,42,-14.50
2019,02,17,11,43,-14.40
2019,02,17,11,44,-14.30
2019,02,17,11,45,-14.30
2019,02,17,11,46,-14.20
2019,02,17,11,47,-14.10
2019,02,17,11,48,-14.00
2019,02,17,11,49,-14.00
2019,02,17,11,50,-13.90
2019,02,17,11,51,-13.90
2019,02,17,11,52,-13.90
2019,02,17,11,53,-13.80
2019,02,17,11,54,-13.80
2019,02,17,11,55,-13.70
2019,02,17,11,56,-13.60
2019,02,17,11,57,-13.50
2019,02,17,11,58,-13.40
2019,02,17,11,59,-13.40
2019,02,17,12,00,-13.30
2019,02,17,12,01,-13.20
2019,02,17,12,02,-13.10
2019,02,17,12,03,-13.00
2019,02,17,12,04,-13.00
2019,02,17,12,05,-12.90
2019,02,17,12,06,-12.90
2019,02,17,12,07,-12.80
2019,02,17,12,08,-12.80
2019,02,17,12,09,-12.70
2019,02,17,12,10,-12.70
2019,02,17,12,11,-12.70
2019,02,17,12,12,-12.60
2019,02,17,12,13,-12.60
2019,02,17,12,14,-12.60
2019,02,17,12,15,-12.50
2019,02,17,12,16,-12.50
2019,02,17,12,17,-12.50
2019,02,17,12,18,-12.50
2019,02,17,12,19,-12.50
2019,02,17,12,20,-12.60
2019,02,17,12,21,-12.60
2019,02,17,12,22,-12.70
2019,02,17,12,23,-12.70
2019,02,17,12,24,-12.80
2019,02,17,12,25,-12.80
2019,02,17,12,26,-12.80
2019,02,17,12,27,-12.90
2019,02,17,12,28,-12.90
2019,02,17,12,29,-12.90
2019,02,17,12,30,-12.90
2019,02,17,12,31,-12.90
2019,02,17,12,32,-12.90
2019,02,17,12,33,-12.90
2019,02,17,12,34,-12.90
2019,02,17,12,35,-12.90
2019,02,17,12,36,-12.90
2019,02,17,12,37,-12.90
2019,02,17,12,38,-12.90
2019,02,17,12,39,-12.60
2019,02,17,12,40,-12.50
2019,02,17,12,41,-12.50
2019,02,17,12,42,-12.40
2019,02,17,12,43,-12.30
2019,02,17,12,44,-12.20
2019,02,17,12,45,-12.10
2019,02,17,12,46,-12.00
2019,02,17,12,47,-11.90
2019,02,17,12,48,-11.80
2019,02,17,12,49,-11.70
2019,02,17,12,50,-11.60
2019,02,17,12,51,-11.60
2019,02,17,12,52,-11.50
2019,02,17,12,53,-11.40
2019,02,17,12,54,-11.30
2019,02,17,12,55,-11.20
2019,02,17,12,56,-11.20
2019,02,17,12,57,-11.10
2019,02,17,12,58,-11.00
2019,02,17,12,59,-10.90
2019,02,17,13,00,-10.90
2019,02,17,13,01,-10.80
2019,02,17,13,02,-10.80
2019,02,17,13,03,-10.70
2019,02,17,13,04,-10.70
2019,02,17,13,05,-10.60
2019,02,17,13,06,-10.60
2019,02,17,13,07,-10.60
2019,02,17,13,08,-10.50
2019,02,17,13,09,-10.50
2019,02,17,13,10,-10.50
2019,02,17,13,11,-10.40
2019,02,17,13,12,-10.40
2019,02,17,13,13,-10.40
2019,02,17,13,14,-10.30
2019,02,17,13,15,-10.30
2019,02,17,13,16,-10.20
2019,02,17,13,17,-10.20
2019,02,17,13,18,-10.20
2019,02,17,13,19,-10.20
2019,02,17,13,20,-10.10
2019,02,17,13,21,-10.10
2019,02,17,13,22,-10.00
2019,02,17,13,23,-10.00
2019,02,17,13,24,-9.90
2019,02,17,13,25,-9.90
2019,02,17,13,26,-9.80
2019,02,17,13,27,-9.80
2019,02,17,13,28,-9.80
2019,02,17,13,29,-9.70
2019,02,17,13,30,-9.70
2019,02,17,13,31,-9.70
2019,02,17,13,32,-9.70
2019,02,17,13,33,-9.60
2019,02,17,13,34,-9.60
2019,02,17,13,35,-9.50
2019,02,17,13,36,-9.50
2019,02,17,13,37,-9.50
2019,02,17,13,38,-9.40
2019,02,17,13,39,-9.40
2019,02,17,13,40,-9.40
2019,02,17,13,41,-9.40
2019,02,17,13,42,-9.40
2019,02,17,13,43,-9.40
2019,02,17,13,44,-9.40
2019,02,17,13,45,-9.40
2019,02,17,13,46,-9.30
2019,02,17,13,47,-9.30
2019,02,17,13,48,-9.30
2019,02,17,13,49,-9.20
2019,02,17,13,50,-9.20
2019,02,17,13,51,-9.20
2019,02,17,13,52,-9.10
2019,02,17,13,53,-9.10
2019,02,17,13,54,-9.10
2019,02,17,13,55,-9.00
2019,02,17,13,56,-9.00
2019,02,17,13,57,-8.90
2019,02,17,13,58,-8.90
2019,02,17,13,59,-8.90
2019,02,17,14,00,-8.80
2019,02,17,14,01,-8.80
2019,02,17,14,02,-8.80
2019,02,17,14,03,-8.80
2019,02,17,14,04,-8.80
2019,02,17,14,05,-8.80
2019,02,17,14,06,-8.80
2019,02,17,14,07,-8.80
2019,02,17,14,08,-8.80
2019,02,17,14,09,-8.90
2019,02,17,14,10,-8.90
2019,02,17,14,11,-8.90
2019,02,17,14,12,-8.90
2019,02,17,14,13,-8.90
2019,02,17,14,14,-8.90
2019,02,17,14,15,-8.90
2019,02,17,14,16,-8.90
2019,02,17,14,17,-8.90
2019,02,17,14,18,-8.90
2019,02,17,14,19,-8.90
2019,02,17,14,20,-8.90
2019,02,17,14,21,-8.90
2019,02,17,14,22,-8.90
2019,02,17,14,23,-8.90
2019,02,17,14,24,-8.90
2019,02,17,14,25,-9.00
2019,02,17,14,26,-9.00
2019,02,17,14,27,-9.00
2019,02,17,14,28,-9.00
2019,02,17,14,29,-9.00
2019,02,17,14,30,-9.00
2019,02,17,14,31,-9.00
2019,02,17,14,32,-8.90
2019,02,17,14,33,-8.90
2019,02,17,14,34,-8.90
2019,02,17,14,35,-8.90
2019,02,17,14,36,-8.70
2019,02,17,14,37,-8.70
2019,02,17,14,38,-8.60
2019,02,17,14,39,-8.60
2019,02,17,14,40,-8.50
2019,02,17,14,41,-8.40
2019,02,17,14,42,-8.40
2019,02,17,14,43,-8.30
2019,02,17,14,44,-8.30
2019,02,17,14,45,-8.20
2019,02,17,14,46,-8.20
2019,02,17,14,47,-8.20
2019,02,17,14,48,-8.20
2019,02,17,14,49,-8.20
2019,02,17,14,50,-8.20
2019,02,17,14,51,-8.20
2019,02,17,14,52,-8.20
2019,02,17,14,53,-8.20
2019,02,17,14,54,-8.20
2019,02,17,14,55,-8.20
2019,02,17,14,56,-8.20
2019,02,17,14,57,-8.20
2019,02,17,14,58,-8.10
2019,02,17,14,59,-8.10
2019,02,17,15,00,-8.10
2019,02,17,15,01,-8.10
2019,02,17,15,02,-8.10
2019,02,17,15,03,-8.10
2019,02,17,15,04,-8.10
2019,02,17,15,05,-8.10
2019,02,17,15,06,-8.10
2019,02,17,15,07,-8.10
2019,02,17,15,08,-8.10
2019,02,17,15,09,-8.00
2019,02,17,15,10,-8.00
2019,02,17,15,11,-8.00
2019,02,17,15,12,-8.00
2019,02,17,15,13,-8.00
2019,02,17,15,14,-8.00
2019,02,17,15,15,-7.90
2019,02,17,15,16,-7.90
2019,02,17,15,17,-7.90
2019,02,17,15,18,-7.90
2019,02,17,15,19,-7.80
2019,02,17,15,20,-7.80
2019,02,17,15,21,-7.80
2019,02,17,15,22,-7.70
2019,02,17,15,23,-7.70
2019,02,17,15,24,-7.70
2019,02,17,15,25,-7.70
2019,02,17,15,26,-7.60
2019,02,17,15,27,-7.60
2019,02,17,15,28,-7.60
2019,02,17,15,29,-7.60
2019,02,17,15,30,-7.50
2019,02,17,15,31,-7.50
2019,02,17,15,32,-7.50
2019,02,17,15,33,-7.50
2019,02,17,15,34,-7.50
2019,02,17,15,35,-7.50
2019,02,17,15,36,-7.50
2019,02,17,15,37,-7.50
2019,02,17,15,38,-7.50
2019,02,17,15,39,-7.50
2019,02,17,15,40,-7.50
2019,02,17,15,41,-7.50
2019,02,17,15,42,-7.40
2019,02,17,15,43,-7.40
2019,02,17,15,44,-7.40
2019,02,17,15,45,-7.40
2019,02,17,15,46,-7.30
2019,02,17,15,47,-7.30
2019,02,17,15,48,-7.30
2019,02,17,15,49,-7.30
2019,02,17,15,50,-7.20
2019,02,17,15,51,-7.20
2019,02,17,15,52,-7.20
2019,02,17,15,53,-7.10
2019,02,17,15,54,-7.10
2019,02,17,15,55,-7.10
2019,02,17,15,56,-7.10
2019,02,17,15,57,-7.10
2019,02,17,15,58,-7.10
2019,02,17,15,59,-7.00
2019,02,17,16,00,-7.00
2019,02,17,16,01,-7.00
2019,02,17,16,02,-6.90
2019,02,17,16,03,-6.90
2019,02,17,16,04,-6.80
2019,02,17,16,05,-6.80
2019,02,17,16,06,-6.80
2019,02,17,16,07,-6.70
2019,02,17,16,08,-6.70
2019,02,17,16,09,-6.70
2019,02,17,16,10,-6.70
2019,02,17,16,11,-6.60
2019,02,17,16,12,-6.60
2019,02,17,16,13,-6.60
2019,02,17,16,14,-6.60
2019,02,17,16,15,-6.60
2019,02,17,16,16,-6.60
2019,02,17,16,17,-6.60
2019,02,17,16,18,-6.60
2019,02,17,16,19,-6.60
2019,02,17,16,20,-6.60
2019,02,17,16,21,-6.60
2019,02,17,16,22,-6.60
2019,02,17,16,23,-6.60
2019,02,17,16,24,-6.60
2019,02,17,16,25,-6.60
2019,02,17,16,26,-6.60
2019,02,17,16,27,-6.60
2019,02,17,16,28,-6.60
2019,02,17,16,29,-6.60
2019,02,17,16,30,-6.60
2019,02,17,16,31,-6.60
2019,02,17,16,32,-6.60
2019,02,17,16,33,-6.60
2019,02,17,16,34,-6.60
2019,02,17,16,35,-6.60
2019,02,17,16,36,-6.60
2019,02,17,16,37,-6.60
2019,02,17,16,38,-6.60
2019,02,17,16,39,-6.60
2019,02,17,16,40,-6.60
2019,02,17,16,41,-6.60
2019,02,17,16,42,-6.60
2019,02,17,16,43,-6.60
2019,02,17,16,44,-6.60
2019,02,17,16,45,-6.60
2019,02,17,16,46,-6.60
2019,02,17,16,47,-6.60
2019,02,17,16,48,-6.60
2019,02,17,16,49,-6.60
2019,02,17,16,50,-6.60
2019,02,17,16,51,-6.70
2019,02,17,16,52,-6.70
2019,02,17,16,53,-6.70
2019,02,17,16,54,-6.70
2019,02,17,16,55,-6.70
2019,02,17,16,56,-6.70
2019,02,17,16,57,-6.60
2019,02,17,16,58,-6.60
2019,02,17,16,59,-6.60
2019,02,17,17,00,-6.60